IW1PUR Weather Reports


time (UTC)temp
C
wind
direction
speed
KPH
gust
KPH
rain 1hr
cm
rain 24hr
cm
rain mn
cm
humidity
%
barometer
mb
20260507003116 12 0 0.0 0.0 0.00 1.70 0.00 57 1010.4
20260507002716 12 180 0.0 0.0 0.00 1.70 0.00 57 1010.4
20260507002315 12 113 0.0 0.0 0.00 1.70 0.00 57 1010.4
20260507001913 12 45 0.0 0.0 0.00 1.70 0.00 56 1010.5
20260507001311 12 180 0.0 0.0 0.00 1.70 0.00 55 1010.4
20260507000910 12 45 0.0 3.2 0.00 1.70 0.00 54 1010.4
20260507000509 12 135 0.0 1.6 0.00 1.70 0.00 53 1010.4
20260507000108 12 90 0.0 0.0 0.00 1.70 0.00 53 1010.5
20260506235707 12 180 0.0 0.0 0.00 1.70 0.00 53 1010.5
20260506235105 12 135 0.0 3.2 0.00 1.70 0.00 54 1010.5
20260506234703 12 135 0.0 3.2 0.00 1.70 0.00 54 1010.5
20260506234302 12 0 0.0 3.2 0.00 1.70 0.00 55 1010.5
20260506233901 12 23 0.0 1.6 0.00 1.70 0.00 55 1010.5
20260506233459 12 113 0.0 0.0 0.00 1.70 0.00 55 1010.6
20260506233058 12 158 0.0 0.0 0.00 1.70 0.00 55 1010.5
20260506232657 12 180 0.0 1.6 0.00 1.70 0.00 55 1010.5
20260506231654 12 135 0.0 0.0 0.00 1.70 0.00 54 1010.6
20260506231253 12 45 0.0 1.6 0.00 1.70 0.00 54 1010.6
20260506230852 12 135 0.0 1.6 0.00 1.70 0.00 54 1010.6
20260506230451 12 90 0.0 0.0 0.00 1.70 0.00 53 1010.5
20260506230050 12 225 0.0 0.0 0.00 1.70 0.00 54 1010.6
20260506225448 12 135 0.0 1.6 0.00 1.70 0.00 54 1010.5
20260506225047 12 45 0.0 1.6 0.00 1.70 0.00 54 1010.5
20260506224646 12 68 0.0 0.0 0.00 1.70 0.00 54 1010.5
20260506224244 12 90 0.0 0.0 0.00 1.70 0.00 54 1010.5
20260506223843 12 135 0.0 0.0 0.00 1.70 0.00 54 1010.5
20260506223442 12 135 0.0 0.0 0.00 1.70 0.00 54 1010.5
20260506222840 12 180 0.0 0.0 0.00 1.70 0.00 53 1010.5
20260506222439 12 225 0.0 0.0 0.00 1.70 0.00 53 1010.5
20260506222038 12 0 0.0 1.6 0.00 1.70 0.00 53 1010.5
20260506221638 12 180 0.0 0.0 0.00 1.70 0.00 53 1010.6
20260506221236 12 0 0.0 1.6 0.00 1.70 0.00 53 1010.6
20260506220835 12 248 0.0 1.6 0.00 1.70 0.00 53 1010.5
20260506220434 12 180 0.0 1.6 0.00 0.00 0.00 53 1010.5
20260506220014 12 45 0.0 1.6 0.00 1.70 1.70 53 1010.6
20260506215613 12 225 0.0 0.0 0.00 1.70 1.70 53 1010.6
20260506215212 12 180 0.0 1.6 0.00 1.70 1.70 53 1010.6
20260506214810 12 45 0.0 1.6 0.00 1.70 1.70 53 1010.5
20260506214409 12 180 0.0 0.0 0.00 1.70 1.70 53 1010.5
20260506213807 12 270 0.0 1.6 0.00 1.70 1.70 55 1010.5
20260506213407 12 135 0.0 0.0 0.00 1.70 1.70 55 1010.5
20260506213005 12 45 0.0 0.0 0.00 1.70 1.70 55 1010.5
20260506212604 12 45 0.0 0.0 0.00 1.70 1.70 56 1010.6
20260506212203 12 225 0.0 1.6 0.00 1.70 1.70 57 1010.5
20260506211802 12 90 0.0 1.6 0.00 1.70 1.70 57 1010.5
20260506211402 12 135 0.0 0.0 0.00 1.70 1.70 57 1010.4
20260506210759 12 225 0.0 0.0 0.00 1.70 1.70 57 1010.5
20260506210359 12 203 0.0 0.0 0.00 1.70 1.70 57 1010.3
20260506205959 12 135 0.0 0.0 0.00 1.70 1.70 57 1010.5
20260506205556 12 293 0.0 0.0 0.00 1.70 1.70 57 1010.5
20260506205155 12 135 0.0 1.6 0.00 1.70 1.70 57 1010.4
20260506204754 12 135 0.0 1.6 0.00 1.70 1.70 57 1010.4
20260506204354 12 135 0.0 0.0 0.00 1.70 1.70 56 1010.6
20260506203954 12 113 0.0 0.0 0.00 1.70 1.70 57 1010.4
20260506202951 12 135 0.0 1.6 0.00 1.70 1.70 57 1010.3
20260506202550 12 135 0.0 0.0 0.00 1.70 1.70 56 1010.4
20260506202150 12 225 0.0 0.0 0.00 1.70 1.70 55 1010.4
20260506201750 12 180 0.0 0.0 0.00 1.70 1.70 55 1010.3
20260506201348 12 225 0.0 0.0 0.00 1.70 1.70 55 1010.3
20260506200946 12 135 0.0 0.0 0.00 1.70 1.70 54 1010.2
20260506195945 12 135 0.0 0.0 0.00 1.70 1.70 53 1010.0
20260506195543 12 180 0.0 0.0 0.00 1.70 1.70 53 1009.9
20260506195142 12 180 0.0 0.0 0.00 1.70 1.70 53 1009.9
20260506194741 12 135 0.0 0.0 0.00 1.70 1.70 53 1009.9
20260506194340 12 225 0.0 0.0 0.00 1.70 1.70 52 1009.8
20260506193938 13 135 0.0 0.0 0.00 1.70 1.70 51 1009.7
20260506193737 13 180 0.0 0.0 0.00 1.70 1.70 51 1009.8
20260506193336 13 90 0.0 0.0 0.00 1.70 1.70 50 1009.7
20260506192935 13 135 0.0 0.0 0.00 1.70 1.70 51 1009.7
20260506192533 13 180 0.0 0.0 0.00 1.70 1.70 51 1009.7
20260506192132 13 135 0.0 0.0 0.00 1.70 1.70 51 1009.6
20260506191731 13 90 0.0 1.6 0.00 1.70 1.70 51 1009.6
20260506191329 13 315 0.0 0.0 0.00 1.70 1.70 50 1009.5
20260506190928 13 90 0.0 0.0 0.00 1.70 1.70 50 1009.4
20260506190527 13 68 0.0 0.0 0.00 1.70 1.70 50 1009.4
20260506185123 13 45 0.0 0.0 0.00 1.70 1.70 49 1009.2
20260506184722 13 135 0.0 0.0 0.00 1.70 1.70 48 1009.3
20260506184321 13 315 0.0 0.0 0.00 1.70 1.70 48 1009.2
20260506183919 13 68 0.0 0.0 0.00 1.70 1.70 48 1009.1
20260506183518 13 270 0.0 0.0 0.00 1.70 1.70 49 1008.9
20260506183116 13 45 0.0 1.6 0.00 1.70 1.70 48 1009.0
20260506182715 13 135 0.0 0.0 0.00 1.70 1.70 48 1008.9
20260506181712 13 113 0.0 0.0 0.00 1.70 1.70 50 1008.8
20260506181311 13 135 0.0 0.0 0.00 1.70 1.70 50 1008.8
20260506180910 13 135 0.0 0.0 0.00 1.70 1.70 51 1008.6
20260506180508 13 135 0.0 0.0 0.00 1.70 1.70 50 1008.5
20260506180108 13 180 0.0 0.0 0.00 1.70 1.70 50 1008.5
20260506175706 13 135 0.0 0.0 0.00 1.70 1.70 50 1008.5
20260506175306 13 135 0.0 0.0 0.00 1.70 1.70 50 1008.5
20260506174904 13 180 0.0 0.0 0.00 1.70 1.70 49 1008.5
20260506174302 13 180 0.0 0.0 0.00 1.70 1.70 48 1008.5
20260506173902 13 180 0.0 0.0 0.00 1.70 1.70 48 1008.5
20260506173500 13 135 0.0 0.0 0.00 1.70 1.70 47 1008.5
20260506173100 13 90 0.0 0.0 0.00 1.70 1.70 47 1008.4
20260506172658 13 135 0.0 0.0 0.00 1.70 1.70 46 1008.4
20260506172256 13 270 0.0 0.0 0.00 1.70 1.70 46 1008.3
20260506171855 13 225 0.0 0.0 0.00 1.70 1.70 46 1008.2
20260506170455 14 113 0.0 1.6 0.00 1.70 1.70 44 1008.2
20260506170050 14 90 0.0 0.0 0.00 1.70 1.70 44 1008.2
20260506165649 14 90 0.0 0.0 0.00 1.70 1.70 43 1008.1
20260506165248 14 90 0.0 0.0 0.00 1.70 1.70 42 1008.3
20260506164245 15 270 0.0 0.0 0.00 1.70 1.70 40 1008.4
20260506163844 15 45 0.0 0.0 0.00 1.70 1.70 39 1008.3
20260506163442 15 45 0.0 0.0 0.00 1.70 1.70 37 1008.2
20260506163041 15 180 0.0 0.0 0.00 1.70 1.70 36 1008.3
20260506162639 15 90 0.0 0.0 0.00 1.70 1.70 35 1008.1
20260506162238 15 135 0.0 0.0 0.00 1.70 1.70 35 1008.2
20260506161836 16 180 0.0 0.0 0.00 1.70 1.70 34 1008.2
20260506161435 16 135 0.0 0.0 0.00 1.70 1.70 32 1008.2
20260506160834 17 0 0.0 1.6 0.00 1.70 1.70 32 1008.2
20260506160032 16 135 0.0 0.0 0.00 1.70 1.70 36 1008.1
20260506155631 16 135 0.0 1.6 0.00 1.70 1.70 35 1008.1
20260506155229 16 135 0.0 0.0 0.00 1.70 1.70 37 1008.0
20260506154828 15 90 0.0 3.2 0.00 1.70 1.70 38 1008.1
20260506154426 16 180 0.0 3.2 0.00 1.70 1.70 37 1008.0
20260506154225 16 0 0.0 1.6 0.00 1.70 1.70 35 1008.0
20260506153825 16 135 0.0 0.0 0.00 1.70 1.70 35 1008.1
20260506153423 16 158 0.0 1.6 0.00 1.70 1.70 35 1008.0
20260506153022 16 180 0.0 1.6 0.00 1.70 1.70 34 1008.0
20260506152620 16 45 0.0 0.0 0.00 1.70 1.70 34 1007.9
20260506152219 17 135 0.0 1.6 0.00 1.70 1.70 32 1008.1
20260506151818 17 315 0.0 0.0 0.00 1.70 1.70 32 1007.9
20260506151417 17 135 0.0 0.0 0.00 1.70 1.70 31 1007.9
20260506150414 17 135 0.0 0.0 0.00 1.70 1.70 31 1008.0
20260506150013 17 135 0.0 0.0 0.00 1.70 1.70 31 1007.9
20260506145612 17 270 0.0 0.0 0.00 1.70 1.70 32 1007.8
20260506145211 17 180 0.0 1.6 0.00 1.70 1.70 32 1007.8
20260506144809 18 315 0.0 0.0 0.00 1.70 1.70 31 1008.0
20260506144408 18 135 0.0 1.6 0.00 1.70 1.70 33 1007.9
20260506144008 18 315 1.6 4.8 0.00 1.70 1.70 30 1007.9
20260506143406 18 180 0.0 0.0 0.00 1.70 1.70 34 1007.8
20260506143005 18 158 0.0 1.6 0.00 1.70 1.70 30 1007.9
20260506142603 19 0 0.0 1.6 0.00 1.70 1.70 29 1007.9
20260506141801 20 135 0.0 1.6 0.00 1.70 1.70 30 1008.1
20260506141359 20 90 0.0 0.0 0.00 1.70 1.70 29 1007.9
20260506140958 20 135 0.0 0.0 0.00 1.70 1.70 28 1008.1
20260506140757 20 90 0.0 4.8 0.00 1.70 1.70 31 1007.9
20260506140356 20 225 0.0 1.6 0.00 1.70 1.70 34 1007.9
20260506135955 20 180 0.0 1.6 0.00 1.70 1.70 34 1007.9
20260506135553 19 315 0.0 1.6 0.00 1.70 1.70 35 1007.9
20260506135153 19 180 0.0 0.0 0.00 1.70 1.70 34 1008.1
20260506134751 19 270 0.0 0.0 0.00 1.70 1.70 32 1008.0
20260506134350 19 180 0.0 0.0 0.00 1.70 1.70 34 1008.1
20260506133347 17 0 0.0 1.6 0.00 1.70 1.70 36 1008.1
20260506132946 17 158 0.0 0.0 0.00 1.70 1.70 34 1008.1
20260506132545 17 293 0.0 1.6 0.00 1.70 1.70 33 1008.0
20260506132144 18 90 0.0 6.4 0.00 1.70 1.70 35 1008.1
20260506131743 18 90 1.6 6.4 0.00 1.70 1.70 35 1008.1
20260506131141 19 135 3.2 8.0 0.00 1.70 1.70 34 1008.0
20260506130741 18 135 0.0 3.2 0.00 1.70 1.70 34 1008.1
20260506130340 19 90 0.0 0.0 0.00 1.70 1.70 34 1008.0
20260506125938 19 158 3.2 11.3 0.00 1.70 1.70 34 1008.1
20260506125537 19 135 0.0 0.0 0.00 1.70 1.70 35 1008.1
20260506125136 20 135 0.0 1.6 0.00 1.70 1.70 34 1008.1
20260506124535 19 135 0.0 0.0 0.00 1.70 1.70 34 1008.2
20260506124134 18 315 0.0 0.0 0.00 1.70 1.70 39 1008.1
20260506123732 18 135 0.0 0.0 0.00 1.70 1.70 39 1008.1
20260506123332 18 90 0.0 0.0 0.00 1.70 1.70 38 1008.0
20260506122930 17 225 0.0 1.6 0.00 1.70 1.70 41 1008.2
20260506122528 17 90 0.0 1.6 0.00 1.70 1.70 41 1008.0
20260506122127 17 135 0.0 0.0 0.00 1.70 1.70 40 1008.0
20260506121128 16 135 0.0 0.0 0.00 1.70 1.70 42 1007.9
20260506120725 16 90 0.0 1.6 0.00 1.70 1.70 42 1008.0
20260506120323 17 90 0.0 1.6 0.00 1.70 1.70 41 1007.9
20260506115922 17 135 0.0 3.2 0.00 1.70 1.70 39 1007.8
20260506115520 17 90 0.0 1.6 0.00 1.70 1.70 37 1007.9
20260506115119 18 158 0.0 0.0 0.00 1.70 1.70 38 1008.0
20260506114517 18 135 0.0 1.6 0.00 1.70 1.70 42 1007.9
20260506114116 17 135 0.0 3.2 0.00 1.70 1.70 41 1008.0
20260506113714 17 90 0.0 0.0 0.00 1.70 1.70 38 1008.0
20260506113313 18 180 1.6 6.4 0.00 1.70 1.70 36 1008.1
20260506112912 18 135 1.6 4.8 0.00 1.70 1.70 38 1007.9
20260506112510 18 135 0.0 1.6 0.00 1.70 1.70 42 1008.0
20260506112309 17 180 0.0 1.6 0.00 1.70 1.70 40 1008.0
20260506111908 17 180 0.0 1.6 0.00 1.70 1.70 36 1007.9
20260506111106 18 135 3.2 8.0 0.00 1.70 1.70 39 1007.9
20260506110704 17 135 0.0 0.0 0.00 1.70 1.70 39 1008.0
20260506110304 17 135 3.2 6.4 0.00 1.70 1.70 41 1008.0
20260506105903 17 180 0.0 1.6 0.00 1.70 1.70 40 1007.9
20260506105501 17 180 0.0 1.6 0.00 1.70 1.70 41 1008.1
20260506105101 17 135 0.0 1.6 0.00 1.70 1.70 41 1008.1
20260506103657 16 135 0.0 1.6 0.00 1.70 1.70 42 1008.1
20260506103256 16 135 0.0 1.6 0.00 1.70 1.70 43 1008.0
20260506102854 16 135 0.0 4.8 0.00 1.70 1.70 43 1008.0
20260506102453 17 135 0.0 1.6 0.00 1.70 1.70 44 1008.0
20260506102052 16 90 0.0 1.6 0.00 1.70 1.70 43 1007.8
20260506101450 16 135 0.0 1.6 0.00 1.70 1.70 43 1007.9
20260506101048 16 293 3.2 8.0 0.00 1.70 1.70 43 1007.8
20260506100647 17 90 3.2 11.3 0.00 1.70 1.70 42 1007.8
20260506100246 17 45 1.6 3.2 0.00 1.70 1.70 44 1007.9
20260506095845 17 45 0.0 1.6 0.00 1.70 1.70 44 1007.9
20260506095444 17 0 0.0 0.0 0.00 1.70 1.70 45 1007.9
20260506095042 16 158 0.0 0.0 0.00 1.70 1.70 51 1007.9
20260506094440 15 135 0.0 0.0 0.00 1.70 1.70 54 1007.8
20260506094039 14 315 0.0 1.6 0.00 1.70 1.70 58 1008.0
20260506093637 14 135 0.0 0.0 0.00 1.70 1.70 58 1008.0
20260506093236 14 135 0.0 1.6 0.00 1.70 1.70 57 1007.8
20260506092834 14 315 0.0 1.6 0.00 1.70 1.70 58 1007.9
20260506092433 14 135 0.0 1.6 0.00 1.70 1.70 60 1007.7
20260506092033 14 270 0.0 0.0 0.00 1.70 1.70 61 1008.0
20260506091631 14 90 0.0 1.6 0.00 1.70 1.70 61 1007.7
20260506090630 14 135 0.0 1.6 0.00 1.70 1.70 60 1007.8
20260506090228 14 180 0.0 3.2 0.00 1.70 1.70 60 1007.3
20260506085828 14 90 0.0 0.0 0.00 1.70 1.70 61 1007.3
20260506085426 14 90 0.0 0.0 0.00 1.70 1.70 61 1007.5
20260506084824 14 315 0.0 1.6 0.00 1.70 1.70 61 1007.3
20260506084422 14 225 3.2 12.9 0.00 1.70 1.70 61 1007.2
20260506084021 14 315 0.0 3.2 0.00 1.70 1.70 62 1007.2
20260506083620 14 45 1.6 8.0 0.00 1.70 1.70 62 1007.1
20260506083218 14 90 0.0 3.2 0.00 1.70 1.70 64 1007.1
20260506082817 14 270 1.6 8.0 0.00 1.70 1.70 64 1007.3
20260506082215 14 0 0.0 1.6 0.00 1.70 1.70 65 1006.7
20260506081813 14 180 3.2 17.7 0.00 1.70 1.70 68 1007.0
20260506081412 14 270 0.0 3.2 0.00 1.70 1.70 69 1006.8
20260506081011 14 225 0.0 1.6 0.00 1.70 1.70 69 1006.8
20260506080609 14 270 0.0 3.2 0.00 1.70 1.70 73 1006.8
20260506080208 13 0 3.2 19.3 0.00 1.70 1.70 74 1007.1
20260506072958 13 113 6.4 14.5 0.28 1.70 1.70 87 1006.5
20260506072558 13 180 0.0 1.6 0.28 1.70 1.70 87 1006.6
20260506072156 13 180 0.0 3.2 0.28 1.70 1.70 87 1006.5
20260506071755 13 135 0.0 0.0 0.28 1.70 1.70 87 1006.5
20260506071354 13 180 0.0 3.2 0.28 1.70 1.70 86 1006.5
20260506070953 13 90 3.2 20.9 0.28 1.70 1.70 86 1006.4
20260506070552 13 293 8.0 16.1 0.28 1.70 1.70 86 1006.5
20260506070351 13 45 0.0 1.6 0.28 1.70 1.70 85 1006.3
20260506062138 13 225 0.0 0.0 0.00 1.55 1.40 82 1006.1
20260506061736 13 135 0.0 0.0 0.00 1.57 1.40 82 1006.4
20260506061335 13 90 0.0 0.0 0.00 1.63 1.40 83 1006.4
20260506060733 12 135 0.0 1.6 0.00 1.70 1.40 84 1006.6
20260506060332 12 270 0.0 0.0 0.00 1.83 1.40 84 1006.6
20260506051117 11 270 0.0 0.0 0.03 3.00 1.40 86 1006.8
20260506050715 11 113 0.0 0.0 0.03 3.07 1.40 85 1006.8
20260506050314 11 113 0.0 0.0 0.05 3.15 1.40 85 1006.7
20260506044909 11 90 0.0 0.0 0.08 3.40 1.40 85 1006.7
20260506044508 11 135 0.0 0.0 0.10 3.48 1.40 85 1006.9
20260506044108 11 225 0.0 0.0 0.10 3.53 1.40 85 1006.9
20260506043706 11 270 0.0 0.0 0.10 3.56 1.40 85 1006.8
20260506043505 11 45 0.0 0.0 0.10 3.56 1.40 85 1006.9
20260506043104 11 45 0.0 0.0 0.10 3.61 1.40 85 1007.0
20260506042702 11 45 0.0 0.0 0.08 3.61 1.40 85 1007.1
20260506042301 11 180 0.0 0.0 0.08 3.66 1.37 85 1007.2
20260506041859 11 45 0.0 0.0 0.08 3.68 1.37 85 1007.2
20260506041458 11 0 0.0 0.0 0.08 3.71 1.37 85 1007.2
20260506040456 11 68 0.0 3.2 0.05 3.99 1.35 84 1007.4
20260506040054 11 270 0.0 0.0 0.03 3.94 1.35 84 1007.5
20260506035653 11 90 0.0 0.0 0.03 3.99 1.30 84 1007.7
20260506035251 11 270 0.0 0.0 0.00 3.94 1.30 84 1007.6
20260506034850 11 270 0.0 0.0 0.03 3.94 1.27 85 1007.5
20260506034449 11 270 0.0 0.0 0.10 3.99 1.27 85 1007.3
20260506033847 11 270 0.0 0.0 0.13 3.99 1.27 84 1007.4
20260506033446 11 45 0.0 0.0 0.20 4.04 1.27 84 1007.3
20260506033044 11 135 0.0 0.0 0.23 4.06 1.27 83 1007.3
20260506032643 11 270 0.0 0.0 0.25 4.09 1.27 83 1007.2
20260506032242 11 225 0.0 0.0 0.30 4.11 1.27 84 1007.3
20260506031840 11 225 0.0 0.0 0.43 4.11 1.27 82 1007.4
20260506031439 11 225 0.0 0.0 0.56 4.11 1.27 82 1007.4
20260506031238 11 225 0.0 0.0 0.58 4.11 1.27 82 1007.3
20260506030836 11 225 0.0 0.0 0.61 4.11 1.27 82 1007.3
20260506030435 11 225 0.0 0.0 0.64 4.17 1.27 82 1007.5
20260506030033 11 225 0.0 0.0 0.69 4.17 1.27 82 1007.7
20260506025632 11 225 0.0 0.0 0.64 4.11 1.27 82 1007.7
20260506025231 11 270 0.0 0.0 0.64 4.06 1.24 82 1007.5
20260506024830 11 90 0.0 0.0 0.64 4.04 1.19 82 1007.8
20260506024429 11 90 0.0 0.0 0.64 4.04 1.17 82 1008.2
20260506023426 11 225 0.0 0.0 0.71 3.99 1.07 81 1008.1
20260506023025 11 225 0.0 0.0 0.74 3.99 1.04 81 1008.0
20260506022623 11 0 0.0 0.0 0.69 3.91 1.02 80 1008.2
20260506022222 11 0 0.0 0.0 0.58 3.84 0.94 80 1008.2
20260506021620 12 90 0.0 0.0 0.51 3.71 0.71 78 1008.3
20260506021219 12 135 0.0 0.0 0.53 3.71 0.69 77 1008.3
20260506020817 12 180 0.0 0.0 0.53 3.68 0.64 77 1008.0
20260506020416 12 180 0.0 0.0 0.53 3.68 0.61 76 1007.7
20260506020014 12 180 0.0 0.0 0.53 3.68 0.58 76 1007.8
20260506015814 12 180 0.0 0.0 0.51 3.68 0.58 76 1008.0
20260506015412 12 135 0.0 0.0 0.46 3.61 0.53 75 1008.0
20260506015012 12 225 0.0 0.0 0.43 3.58 0.51 75 1008.1
20260506014610 12 225 0.0 0.0 0.43 3.56 0.46 75 1008.3
20260506014209 12 45 0.0 0.0 0.38 3.51 0.43 75 1008.6
20260506013808 12 45 0.0 0.0 0.30 3.43 0.38 74 1008.7
20260506013406 12 45 0.0 0.0 0.25 3.38 0.30 75 1008.7
20260506012404 12 315 0.0 0.0 0.20 3.38 0.23 73 1008.6
20260506012003 13 45 0.0 0.0 0.18 3.35 0.20 72 1008.5
20260506011602 13 180 0.0 0.0 0.10 3.33 0.18 72 1008.4
20260506011200 13 90 0.0 0.0 0.08 3.28 0.10 72 1008.5
20260506010759 13 0 0.0 0.0 0.05 3.28 0.08 72 1008.4
20260506010157 13 90 0.0 0.0 0.03 3.28 0.05 71 1008.3
20260506005756 13 45 0.0 0.0 0.03 3.25 0.03 69 1008.3
20260506005354 13 45 0.0 0.0 0.03 3.25 0.03 69 1008.4
20260506004953 13 45 0.0 0.0 0.00 3.23 0.03 68 1008.6
20260506004551 13 270 0.0 0.0 0.00 3.23 0.00 68 1008.6
20260506004151 13 135 0.0 0.0 0.00 3.23 0.00 67 1008.6
20260506003950 13 135 0.0 0.0 0.00 3.23 0.00 67 1008.6
20260506003549 13 90 0.0 0.0 0.00 3.23 0.00 67 1008.5